DW3319 Weather Reports


Display with metric or nautical units.
time (UTC)temp
F
wind
direction
speed
MPH
gust
MPH
rain 1hr
in
rain 24hr
in
rain mn
in
humidity
%
barometer
mb
20260905181602 80 162 1.0 4.0 0.02 0.02 0.02 92 1013.8
20260905180055 80 171 2.0 5.0 0.02 0.02 0.02 90 1013.5
20260905174550 83 192 3.0 10.0 0.00 0.00 0.00 81 1013.6
20260905173048 87 146 3.0 11.0 0.00 0.00 0.00 83 1013.7
20260905171601 89 51 2.0 8.0 0.00 0.00 0.00 80 1013.6
20260905170054 88 129 2.0 8.0 0.00 0.00 0.00 81 1013.9
20260905164552 87 229 3.0 9.0 0.00 0.00 0.00 82 1014.2
20260905163058 87 238 2.0 7.0 0.00 0.00 0.00 83 1014.3
20260905161556 88 232 1.0 4.0 0.00 0.00 0.00 83 1014.3
20260905160052 87 241 1.0 5.0 0.00 0.00 0.00 84 1014.4
20260905154550 87 137 2.0 8.0 0.00 0.00 0.00 84 1014.5
20260905153106 87 289 2.0 4.0 0.00 0.00 0.00 85 1014.4
20260905151550 85 9 2.0 7.0 0.00 0.00 0.00 88 1014.5
20260905150051 83 119 1.0 4.0 0.00 0.00 0.00 93 1014.5
20260905144557 81 196 1.0 6.0 0.00 0.00 0.00 97 1014.5
20260905143049 80 0 0.0 3.0 0.00 0.00 0.00 99 1014.7
20260905141558 79 117 1.0 2.0 0.00 0.00 0.00 99 1014.6
20260905140106 79 342 1.0 2.0 0.00 0.00 0.00 100 1014.5
20260905134553 78 26 0.0 2.0 0.00 0.00 0.00 99 1014.4
20260905133049 78 137 0.0 2.0 0.00 0.00 0.00 100 1014.5
20260905131609 77 0 0.0 2.0 0.00 0.00 0.00 100 1014.4
20260905130050 76 137 0.0 2.0 0.00 0.00 0.00 100 1014.5
20260905124555 76 51 0.0 2.0 0.00 0.00 0.00 99 1014.3
20260905123049 75 0 0.0 2.0 0.00 0.00 0.00 99 1014.2
20260905121552 74 0 0.0 2.0 0.00 0.00 0.00 99 1014.2
20260905120045 74 137 0.0 2.0 0.00 0.00 0.00 99 1014.0
20260905114555 74 0 0.0 1.0 0.00 0.00 0.00 99 1013.8
20260905113049 74 0 0.0 1.0 0.00 0.00 0.00 99 1013.7
20260905111606 74 309 0.0 1.0 0.00 0.00 0.00 99 1013.5
20260905110051 74 0 0.0 1.0 0.00 0.00 0.00 98 1013.3
20260905104553 74 0 0.0 1.0 0.00 0.00 0.00 98 1013.3
20260905103056 74 0 0.0 1.0 0.00 0.00 0.00 98 1013.2
20260905101553 75 0 0.0 1.0 0.00 0.00 0.00 98 1013.1
20260905100050 75 0 0.0 2.0 0.00 0.00 0.00 98 1013.2
20260905094547 75 137 0.0 1.0 0.00 0.00 0.00 98 1013.2
20260905093057 75 0 0.0 1.0 0.00 0.00 0.00 98 1013.2
20260905091553 75 265 0.0 1.0 0.00 0.00 0.00 98 1013.2
20260905090047 75 0 0.0 1.0 0.00 0.00 0.00 98 1013.1
20260905084545 75 0 0.0 1.0 0.00 0.00 0.00 98 1013.0
20260905083045 75 0 0.0 1.0 0.00 0.00 0.00 98 1013.0
20260905081544 75 0 0.0 1.0 0.00 0.00 0.00 98 1013.1
20260905080048 75 0 0.0 1.0 0.00 0.00 0.00 98 1013.1
20260905074555 75 51 0.0 1.0 0.00 0.00 0.00 98 1013.2
20260905073104 76 0 0.0 1.0 0.00 0.00 0.00 98 1013.2
20260905071554 76 51 0.0 2.0 0.00 0.00 0.00 98 1013.2
20260905070052 76 0 0.0 1.0 0.00 0.00 0.00 98 1013.3
20260905064548 76 0 0.0 2.0 0.00 0.00 0.00 98 1013.3
20260905063056 76 0 0.0 1.0 0.00 0.00 0.00 98 1013.3
20260905061554 76 0 0.0 2.0 0.00 0.00 0.00 98 1013.2
20260905060049 76 0 0.0 2.0 0.00 0.00 0.00 97 1013.4
20260905054550 76 0 0.0 1.0 0.00 0.00 0.00 97 1013.3
20260905053137 77 0 0.0 1.0 0.00 0.00 0.00 97 1013.4
20260905051543 77 0 0.0 1.0 0.00 0.00 0.00 97 1013.4
20260905050051 77 0 0.0 2.0 0.00 0.00 0.00 97 1013.5
20260905044549 77 309 0.0 2.0 0.00 0.00 0.00 97 1013.5
20260905043055 77 0 0.0 2.0 0.00 0.00 0.00 97 1013.8
20260905041555 78 309 1.0 2.0 0.00 0.00 0.00 97 1014.0
20260905040051 77 0 0.0 2.0 0.00 0.00 0.00 96 1014.1
20260905034558 78 137 0.0 1.0 0.00 0.00 0.00 96 1014.2
20260905033056 78 0 0.0 1.0 0.00 0.00 0.00 96 1014.3
20260905031554 78 0 0.0 2.0 0.00 0.00 0.00 96 1014.1
20260905030050 78 126 0.0 2.0 0.00 0.00 0.00 95 1014.0
20260905024545 78 309 0.0 1.0 0.00 0.00 0.00 95 1013.9
20260905023105 79 146 0.0 2.0 0.00 0.00 0.00 95 1013.9
20260905021548 79 0 0.0 1.0 0.00 0.00 0.00 94 1013.8
20260905020106 80 0 0.0 1.0 0.00 0.00 0.00 93 1013.5
20260905014549 80 0 0.0 1.0 0.00 0.00 0.00 92 1013.2
20260905013049 81 0 0.0 1.0 0.00 0.00 0.00 92 1013.1
20260905011608 81 153 0.0 1.0 0.00 0.00 0.00 91 1013.2
20260905010055 82 0 0.0 2.0 0.00 0.00 0.00 90 1013.2
20260905004552 83 0 0.0 2.0 0.00 0.00 0.00 89 1013.2
20260905003100 85 93 0.0 2.0 0.00 0.00 0.00 86 1013.1
20260905001555 86 230 0.0 2.0 0.00 0.00 0.00 83 1013.1
20260905000051 86 0 1.0 7.0 0.00 0.00 0.00 83 1013.1
20260904234554 86 193 2.0 7.0 0.00 0.00 0.00 86 1012.9
20260904233056 88 170 2.0 6.0 0.00 0.00 0.00 83 1012.8
20260904231557 89 146 3.0 7.0 0.00 0.00 0.00 78 1012.6
20260904230055 90 146 0.0 3.0 0.00 0.00 0.00 77 1012.4
20260904224602 90 221 0.0 3.0 0.00 0.00 0.00 72 1012.4
20260904223050 89 0 1.0 4.0 0.00 0.00 0.00 74 1012.5
20260904221551 88 178 1.0 4.0 0.00 0.00 0.00 76 1012.7
20260904220045 86 254 1.0 6.0 0.00 0.00 0.00 79 1012.5
20260904214550 83 279 2.0 9.0 0.00 0.00 0.00 84 1012.6
20260904213050 84 173 2.0 13.0 0.00 0.00 0.00 79 1013.0
20260904211556 88 51 3.0 13.0 0.00 0.00 0.00 78 1013.1
20260904210104 91 153 4.0 13.0 0.00 0.00 0.00 76 1012.9
20260904204555 92 166 3.0 7.0 0.00 0.00 0.00 69 1012.8
20260904203050 93 158 1.0 6.0 0.00 0.00 0.00 70 1013.1
20260904201604 92 0 1.0 4.0 0.00 0.00 0.00 70 1013.2
20260904200107 92 309 2.0 6.0 0.00 0.00 0.00 71 1013.4
20260904194606 91 221 2.0 10.0 0.00 0.00 0.00 74 1013.6
20260904193050 90 178 4.0 10.0 0.00 0.00 0.00 75 1013.9
20260904191558 91 126 0.0 5.0 0.00 0.00 0.00 77 1014.1
20260904190056 91 84 3.0 10.0 0.00 0.00 0.00 72 1014.3
20260904184548 91 178 2.0 7.0 0.00 0.00 0.00 74 1014.3
20260904183058 90 43 3.0 8.0 0.00 0.00 0.00 74 1014.5